Weather History for Cavalier, ND

Change the Weather History Date:

Wednesday, February 6, 2013

  Actual Average (KGAF) Record (KGAF)
Temperature  
Mean Temperature 10 °F -  
Max Temperature 15 °F 19 °F 46 °F (1990)
Min Temperature 5 °F 0 °F -32 °F (1959)
Degree Days  
Heating Degree Days 55    
Moisture  
Dew Point 7 °F    
Average Humidity 85    
Maximum Humidity 93    
Minimum Humidity 78    
Precipitation  
Precipitation 1.24 in - - ()
Sea Level Pressure  
Sea Level Pressure 30.01 in    
Wind  
Wind Speed 9 mph (ENE)    
Max Wind Speed 15 mph    
Max Gust Speed 21 mph    
Visibility 6 miles    
Events Snow    
Averages and records for this station are not official NWS values.
T = Trace of Precipitation, MM = Missing Value Source: NWS Daily Summary

Daily Weather History Graph

Daily Weather History Graph

Search for Another Location

Airport:

Trip Planner

Search our weather history database for the weather conditions in past years. The results will help you decide how hot, cold, wet, or windy it might be!

Date:

Astronomy

Feb. 06, 2013 Rise Set
Actual Time 7:52 AM CST 5:37 PM CST
Civil Twilight 7:19 AM CST 6:10 PM CST
Nautical Twilight 6:41 AM CST 6:48 PM CST
Astronomical Twilight 6:05 AM CST 7:24 PM CST
Moon 4:47 AM CST (2/6) 1:47 PM CST (2/6)
Length of Visible Light 10h 51m
Length of Day
9h 44m
Waning Crescent, 17% of the Moon is Illuminated
Feb 6
Waning Crescent
Feb 10
New
Feb 17
First Quarter
Feb 25
Full
Mar 4
Last Quarter

Hourly Weather History & Observations

Time (CST) Temp. Windchill Dew Point Humidity Pressure Visibility Wind Dir Wind Speed Gust Speed Precip Events Conditions
12:15 AM 5.0 °F -9.1 °F -0.4 °F 78% 29.97 in 10.0 mi SSE 9.2 mph - N/A   Overcast
12:35 AM 5.0 °F -9.1 °F -0.4 °F 78% 29.97 in 10.0 mi South 9.2 mph - N/A   Mostly Cloudy
1:15 AM 5.0 °F -11.6 °F -0.4 °F 78% 29.97 in 10.0 mi South 12.7 mph - N/A   Mostly Cloudy
1:35 AM 6.8 °F -6.9 °F 1.4 °F 79% 29.97 in 10.0 mi SSW 9.2 mph - N/A   Overcast
1:55 AM 6.8 °F -8.6 °F 3.2 °F 85% 29.96 in 10.0 mi SSW 11.5 mph - N/A   Overcast
2:15 AM 8.6 °F -6.3 °F 5.0 °F 85% 29.96 in 10.0 mi South 11.5 mph - N/A   Overcast
2:35 AM 8.6 °F -4.7 °F 5.0 °F 85% 29.96 in 10.0 mi South 9.2 mph - N/A   Mostly Cloudy
2:55 AM 8.6 °F 0.1 °F 5.0 °F 85% 29.95 in 10.0 mi SSE 4.6 mph - N/A   Partly Cloudy
3:15 AM 8.6 °F 2.0 °F 5.0 °F 85% 29.94 in 10.0 mi SE 3.5 mph - N/A   Mostly Cloudy
3:35 AM 8.6 °F 2.0 °F 5.0 °F 85% 29.94 in 10.0 mi ESE 3.5 mph - N/A   Scattered Clouds
3:55 AM 8.6 °F 0.1 °F 5.0 °F 85% 29.93 in 10.0 mi SE 4.6 mph - N/A   Mostly Cloudy
4:15 AM 8.6 °F -1.3 °F 6.8 °F 92% 29.93 in 10.0 mi SE 5.8 mph - N/A   Scattered Clouds
4:35 AM 8.6 °F 0.1 °F 6.8 °F 92% 29.93 in 10.0 mi SE 4.6 mph - N/A   Clear
4:55 AM 10.4 °F 0.8 °F 6.8 °F 85% 29.93 in 10.0 mi SE 5.8 mph - N/A   Clear
5:15 AM 10.4 °F 0.8 °F 6.8 °F 85% 29.93 in 10.0 mi SE 5.8 mph - N/A   Clear
5:35 AM 10.4 °F -0.4 °F 8.6 °F 92% 29.92 in 10.0 mi SSE 6.9 mph - N/A   Clear
5:55 AM 12.2 °F 4.3 °F 8.6 °F 85% 29.93 in 7.0 mi SE 4.6 mph - N/A   Clear
6:15 AM 12.2 °F 4.3 °F 8.6 °F 85% 29.93 in 3.0 mi SSE 4.6 mph - N/A Snow Light Snow
6:35 AM 12.2 °F 2.9 °F 8.6 °F 85% 29.94 in 2.0 mi SE 5.8 mph - N/A Snow Light Snow
6:55 AM 14.0 °F 3.9 °F 10.4 °F 86% 29.93 in 2.0 mi SE 6.9 mph - 0.02 in Snow Light Snow
7:15 AM 14.0 °F 5.1 °F 10.4 °F 86% 29.93 in 1.8 mi SE 5.8 mph - N/A Snow Light Snow
7:35 AM 14.0 °F 3.9 °F 10.4 °F 86% 29.93 in 2.0 mi SE 6.9 mph - 0.01 in Snow Light Snow
7:55 AM 14.0 °F 5.1 °F 10.4 °F 86% 29.93 in 1.5 mi SE 5.8 mph - 0.02 in Snow Light Snow
8:15 AM 14.0 °F 6.5 °F 10.4 °F 86% 29.95 in 1.0 mi SE 4.6 mph - 0.01 in Snow Light Snow
8:35 AM 14.0 °F 6.5 °F 10.4 °F 86% 29.95 in 0.8 mi SE 4.6 mph - 0.03 in Snow Light Snow
8:55 AM 14.0 °F 5.1 °F 10.4 °F 86% 29.94 in 0.5 mi ESE 5.8 mph - 0.06 in Snow Snow
9:15 AM 14.0 °F 5.1 °F 10.4 °F 86% 29.95 in 0.2 mi ESE 5.8 mph - 0.13 in Snow Heavy Snow
9:35 AM 14.0 °F 5.1 °F 10.4 °F 86% 29.96 in 0.8 mi ESE 5.8 mph - 0.30 in Snow Light Snow
9:55 AM 14.0 °F 5.1 °F 10.4 °F 86% 29.96 in 0.5 mi ESE 5.8 mph - 0.34 in Snow Snow
10:15 AM 14.0 °F 3.9 °F 10.4 °F 86% 29.96 in 0.5 mi East 6.9 mph - 0.04 in Snow Snow
10:35 AM 14.0 °F 3.9 °F 10.4 °F 86% 29.96 in 0.2 mi East 6.9 mph - 0.22 in Snow Heavy Snow
10:55 AM 14.0 °F 5.1 °F 10.4 °F 86% 29.97 in 0.8 mi ESE 5.8 mph - 0.26 in Snow Light Snow
11:15 AM 14.0 °F 3.9 °F 10.4 °F 86% 29.97 in 0.8 mi ESE 6.9 mph - 0.01 in Snow Light Snow
11:35 AM 14.0 °F 6.5 °F 10.4 °F 86% 29.98 in 0.5 mi ESE 4.6 mph - 0.05 in Snow Snow
11:55 AM 14.0 °F 6.5 °F 10.4 °F 86% 29.98 in 0.5 mi ESE 4.6 mph - 0.15 in Snow Snow
12:15 PM 14.0 °F 6.5 °F 10.4 °F 86% 29.98 in 0.5 mi ESE 4.6 mph - 0.05 in Snow Snow
12:35 PM 15.8 °F 8.6 °F 12.2 °F 86% 29.98 in 0.2 mi ESE 4.6 mph - 0.12 in Snow Heavy Snow
12:55 PM 14.0 °F 3.9 °F 10.4 °F 86% 29.97 in 1.2 mi East 6.9 mph - 0.16 in Snow Light Snow
1:15 PM 14.0 °F 5.1 °F 12.2 °F 93% 29.98 in 0.8 mi NE 5.8 mph - 0.03 in Snow Light Snow
1:35 PM 15.8 °F 5.1 °F 12.2 °F 86% 29.98 in 0.2 mi NE 8.1 mph - 0.19 in Snow Heavy Snow
1:55 PM 15.8 °F 5.1 °F 12.2 °F 86% 29.97 in 1.2 mi NE 8.1 mph - 0.23 in Snow Light Snow
2:15 PM 15.8 °F 3.4 °F 12.2 °F 86% 29.97 in 3.0 mi NNE 10.4 mph - N/A Snow Light Snow
2:35 PM 15.8 °F 2.1 °F 12.2 °F 86% 29.98 in 1.5 mi NNE 12.7 mph - N/A   Overcast
2:55 PM 15.8 °F 2.7 °F 10.4 °F 79% 29.98 in 10.0 mi North 11.5 mph 16.1 mph N/A   Mostly Cloudy
3:35 PM 15.8 °F 0.9 °F 10.4 °F 79% 30.00 in 9.0 mi North 15.0 mph 19.6 mph N/A   Mostly Cloudy
3:55 PM 15.8 °F 3.4 °F 10.4 °F 79% 30.02 in 10.0 mi North 10.4 mph 17.3 mph N/A   Overcast
4:15 PM 14.0 °F 0.5 °F 10.4 °F 86% 30.02 in 10.0 mi North 11.5 mph - N/A   Overcast
4:35 PM 12.2 °F -1.8 °F 8.6 °F 85% 30.04 in 10.0 mi North 11.5 mph - N/A   Overcast
4:55 PM 12.2 °F -1.8 °F 8.6 °F 85% 30.04 in 5.0 mi North 11.5 mph - N/A   Overcast
5:15 PM 12.2 °F -3.7 °F 8.6 °F 85% 30.05 in 10.0 mi North 15.0 mph 20.7 mph N/A Snow Light Snow
5:35 PM 10.4 °F -4.1 °F 8.6 °F 92% 30.06 in 10.0 mi North 11.5 mph - N/A   Overcast
5:55 PM 10.4 °F -4.8 °F 6.8 °F 85% 30.08 in 10.0 mi North 12.7 mph - N/A Snow Light Snow
6:15 PM 10.4 °F -4.8 °F 6.8 °F 85% 30.09 in 10.0 mi NNW 12.7 mph 17.3 mph N/A   Overcast
6:35 PM 10.4 °F -4.8 °F 6.8 °F 85% 30.10 in 10.0 mi North 12.7 mph - N/A   Overcast
6:55 PM 8.6 °F -7.0 °F 6.8 °F 92% 30.10 in 10.0 mi North 12.7 mph - N/A   Overcast
7:15 PM 8.6 °F -8.3 °F 6.8 °F 92% 30.11 in 10.0 mi NNW 15.0 mph - N/A   Overcast
7:35 PM 8.6 °F -7.7 °F 5.0 °F 85% 30.12 in 9.0 mi NNW 13.8 mph - N/A   Overcast
7:55 PM 8.6 °F -7.7 °F 5.0 °F 85% 30.13 in 10.0 mi NNW 13.8 mph - N/A   Overcast
8:15 PM 8.6 °F -7.7 °F 5.0 °F 85% 30.13 in 10.0 mi NNW 13.8 mph - N/A   Overcast
8:35 PM 8.6 °F -7.0 °F 5.0 °F 85% 30.15 in 10.0 mi NNW 12.7 mph - N/A   Overcast
8:55 PM 8.6 °F -7.7 °F 5.0 °F 85% 30.15 in 10.0 mi NNW 13.8 mph - N/A   Overcast
9:15 PM 6.8 °F -10.7 °F 3.2 °F 85% 30.15 in 10.0 mi NNW 15.0 mph - N/A   Overcast
9:35 PM 6.8 °F -7.8 °F 1.4 °F 79% 30.16 in 10.0 mi NNW 10.4 mph - N/A   Mostly Cloudy
9:55 PM 5.0 °F -10.0 °F 1.4 °F 85% 30.16 in 10.0 mi North 10.4 mph - N/A   Partly Cloudy
10:15 PM 5.0 °F -10.8 °F -0.4 °F 78% 30.18 in 10.0 mi NNW 11.5 mph - N/A   Clear
10:35 PM 5.0 °F -11.6 °F -0.4 °F 78% 30.18 in 10.0 mi NNW 12.7 mph - N/A   Clear
10:55 PM 5.0 °F -10.8 °F -0.4 °F 78% 30.19 in 10.0 mi NNW 11.5 mph - N/A   Clear
11:15 PM 5.0 °F -10.8 °F -0.4 °F 78% 30.20 in 10.0 mi NNW 11.5 mph - N/A   Mostly Cloudy
11:35 PM 5.0 °F -10.8 °F 1.4 °F 85% 30.20 in 10.0 mi NNW 11.5 mph - N/A   Overcast
11:55 PM 5.0 °F -10.8 °F -0.4 °F 78% 30.21 in 10.0 mi NNW 11.5 mph - N/A   Overcast